www.pogodaiklimat.ru

Погода и климат >> Архив погоды >> Аргентина >> Мендоса


ПОГОДА в Мендосе

  • Прогноз погоды в Мендосе
  • Монитор погоды в Мендосе

АРХИВ ПОГОДЫ в Мендосе

Время (UTC), дата Ветер
(напр.,м/с)
 
Видим.   Явления Облачность Т
(С)
Тd
(С)
f
(%)
Тe
(С)
Тes
(С)
Комфортность P
(гПа)
Po
(гПа)
Тmin
(С)
Tmax
(С)
R
(мм)
R24
(мм)
S
(см)
15 11.08 В 3 15 км 3/1 1500 м
[Sc Ac As]
+16.2 -11.5 14 +16 +22 1013.6 932.1
18 11.08 ЮВ 6 15 км 1/1 1500 м
[Sc]
+20.1 -8.8 13 +19 +23 1010.7 929.8
21 11.08 В 4 15 км 3/1 1500 м
[Sc Ac As]
+20.0 -8.5 14 +20 +20 1010.8 929.7
00 12.08 ЮЗ 2 15 км ясно +14.3 -4.0 28 +14 +14 1016.6 934.2 +2.9 +21.0
03 12.08 ЮЗ 2 15 км ясно +11.0 -5.0 32 +10 +10 1018.0 936.9
06 12.08 Ю 5 15 км ясно +10.2 -4.8 34 +8 +8 1020.4 939.4
09 12.08 Ю 4 15 км ясно +9.3 -5.6 34 +7 +7 1022.5 941.3
12 12.08 Ю 2 15 км 1/1 1350 м
[Sc]
+6.8 -4.2 45 +6 +6 1027.1 944.4 +6.6 +14.7
15 12.08 В 5 15 км 1/1 1500 м
[Sc]
+12.0 -5.6 29 +10 +15 1029.4 946.8
18 12.08 Ю 2 15 км 4/1 1500 м
[Sc Ac As Cs]
+14.2 -4.6 27 +14 +22 1027.5 945.2
21 12.08 В 4 15 км 5/1 1500 м
[Sc Ac As]
+14.6 -7.6 21 +14 +14 1027.4 945.0
00 13.08 З 2 15 км 1/0
[Ac As]
+9.7 -4.5 36 +9 +9 1031.3 947.6 +6.7 +15.6
03 13.08 ЮВ 2 15 км ясно +6.0 -2.9 53 +4 +4 1033.8 950.1
06 13.08 Ю 2 15 км ясно +5.3 -1.5 61 +3 +3 1033.5 950.1
09 13.08 ЮЗ 2 15 км ясно +4.0 -1.9 65 +2 +2 1032.9 949.4
12 13.08 З 2 15 км 1/0
[Ci fib]
+1.0 -1.5 83 -2 -1 1034.5 949.7 +0.2 +9.9
15 13.08 В 3 15 км 6/0
[Ci fib]
+10.4 -2.9 39 +9 +15 1033.3 949.4
18 13.08 В 3 15 км 6/0
[Ci fib]
+13.6 -5.0 27 +13 +20 1029.8 946.6
21 13.08 СВ 3 15 км 9/0
[Cs]
+13.4 -4.6 28 +13 +14 1028.5 945.2
00 14.08 З 2 15 км ясно +9.8 -2.4 42 +9 +9 1030.0 945.6 +1.0 +14.9
03 14.08 СЗ 1 15 км ясно +6.0 -5.5 43 +6 +6 1028.4 944.9
06 14.08 ЮВ 1 15 км ясно +2.2 -4.3 62 +1 +1 1025.8 942.5
09 14.08 штиль 0 15 км ясно +1.6 -3.0 71 +1 +1 1023.6 940.2
12 14.08 ЮВ 2 15 км 8/0
[Cs]
+1.6 -1.1 82 -1 -0 1024.1 940.2 +0.7 +10.0
15 14.08 В 3 15 км 6/0
[Cs]
+8.8 -2.9 44 +7 +13 1022.6 939.4
18 14.08 СВ 4 15 км 6/0
[Ac lent Cs]
+14.1 -4.0 28 +13 +18 1018.3 935.6
21 14.08 С 3 15 км 6/0
[Ac lent Cs]
+15.6 -3.5 27 +15 +16 1016.1 933.8
00 15.08 З 1 15 км 8/0
[Cs]
+9.2 +0.9 56 +9 +9 1018.1 934.6 +1.6 +15.7
03 15.08 С 1 15 км 4/0
[Cs]
+7.8 -1.0 54 +7 +7 1018.4 935.8
06 15.08 Ю 2 15 км 3/0
[Cs]
+5.3 -2.2 58 +4 +4 1017.2 935.0
09 15.08 штиль 0 15 км 6/0
[Cs]
+4.9 -2.0 61 +4 +4 1016.2 934.2
12 15.08 З 2 15 км 8/0
[Cs]
+3.2 -1.7 70 +1 +2 1019.1 935.8 +0.9 +9.2
15 15.08 С 2 15 км 9/0
[Cs]
+13.8 -3.0 31 +14 +21 1017.5 935.6
18 15.08 В 1 15 км 9/0
[Cs]
+19.2 -1.0 26 +20 +29 1014.7 933.4
21 15.08 ЮВ 3 15 км 9/0
[Cs]
+18.4 -2.6 24 +19 +19 1014.1 932.8
00 16.08 штиль 0 15 км 3/0
[Cs]
+12.1 +2.6 52 +12 +12 1016.8 934.1 +3.2 +19.5
03 16.08 штиль 0 15 км 3/0
[Cs]
+8.8 +0.4 56 +8 +8 1014.9 933.4
06 16.08 штиль 0 15 км 3/0
[Cs]
+5.7 -1.3 61 +5 +5 1012.8 931.8
09 16.08 ЮЗ 2 15 км 3/0
[Cs]
+6.1 -1.1 60 +5 +5 1011.1 930.1
12 16.08 ЮЗ 2 15 км 5/0
[Cs]
+6.4 -0.1 63 +5 +6 1012.5 930.6 +4.7 +12.3
15 16.08 В 3 15 км 6/0
[Cs]
+14.2 -2.2 32 +14 +20 1011.6 930.4
18 16.08 В 2 15 км 3/1 1500 м
[Sc Cs]
+18.9 -1.6 25 +19 +27 1008.2 927.4
21 16.08 В 3 15 км 1/1 1500 м
[Sc]
+19.2 -1.0 26 +19 +20 1007.3 926.8
00 17.08 ЮЗ 2 15 км ясно +13.6 +1.8 45 +14 +14 1009.8 928.2 +6.2 +19.8
03 17.08 СЗ 1 15 км ясно +11.5 +1.2 49 +12 +12 1009.8 929.0
06 17.08 Ю 3 15 км ясно +9.3 -0.5 50 +8 +8 1010.6 930.2
09 17.08 ЮЗ 2 15 км 3/0
[Cs]
+9.1 -1.4 48 +8 +8 1011.5 931.0
12 17.08 СЗ 2 15 км 4/0
[Ci]
+5.8 -1.8 58 +4 +5 1014.2 932.2 +5.7 +13.8
15 17.08 СВ 2 15 км 4/0
[Ci]
+17.0 +1.3 35 +17 +26 1013.8 933.2
18 17.08 СВ 4 15 км 3/0
[Cs]
+19.1 -1.6 25 +19 +26 1011.8 931.3
21 17.08 штиль 0 15 км 1/0
[Ac As]
+19.8 +0.9 28 +20 +21 1011.9 931.4
00 18.08 штиль 0 15 км ясно +13.9 +1.7 44 +14 +14 1016.9 934.8 +5.5 +20.1
03 18.08 Ю 2 15 км 1/0
[Ac As]
+11.7 +0.5 46 +11 +11 1018.3 937.3
06 18.08 Ю 3 15 км 1/0
[Ac As]
+10.1 -0.9 46 +9 +9 1019.4 938.4
09 18.08 Ю 4 15 км 1/0
[Ac As]
+11.8 -1.3 40 +10 +10 1019.6 938.9
12 18.08 Ю 6 15 км 3/0
[Ac As]
+11.0 -0.5 45 +8 +9 1023.9 942.0 +9.3 +13.9

 

Местоположение метеостанции Мендоса (Аргентина): широта -32.83 долгота -68.78 высота над уровнем моря 704 м.

В архиве по умолчанию представлена погода в Мендосе за последнюю неделю. Архивные данные за месяц целиком и за предыдущие месяцы, начиная с января 2011 года, Вы можете получить, выбрав интересующий диапазон дат из раскрывающегося списка и нажав кнопку "Ввод!".


*Определитесь, кто Вы:
робот инопланетянин человек

Внимание! Время в таблицах - всемирное. Для получения местного времени необходимо прибавить поправку, которая равна -3 ч.

Смотрите также архив погоды в соседних городах и на ближайших метеорологических станциях:

Погода в Сан-Мартине (Аргентина) (44 км)
Погода на Пасо Лос Либертадорес (Чили) (125 км)
Погода в Сан-Хуане (Аргентина) (163 км)
Погода в Сан-Хосе-де-Майпо (Чили) (170 км)
Погода в Сантьяго Агуас Андинас (Чили) (183 км)
Погода в Ло-Пинто (Чили) (188 км)
Погода в Сантьяго (Чили) (189 км)
Погода в Пудауэле (Чили) (196 км)
Погода в Сан-Рафаэле (Аргентина) (198 км)
Погода в Льяй Льяй (Чили) (199 км)

Пояснения к столбцам:

Ветер - указаны скорость ветра в м/с - средняя за 10 мин, порывы в срок и между сроками (в фигурных скобках) и направление, откуда дует ветер: С - северный, СВ - северо-восточный, В - восточный, ЮВ - юго-восточный, Ю - южный, ЮЗ - юго-западный, З - западный, СЗ - северо-западный.
Видимость - горизонтальная дальность видимости в метрах или километрах. При видимости от 1 до 10 км при отсутствии осадков обычно наблюдается дымка, при ухудшении видимости до 1 км и менее - туман. В сухую погоду видимость может ухудшаться дымом, пылью или мглою.
Явления - указаны атмосферные явления, наблюдавшиеся в срок или в последний час перед сроком; фигурными скобками обозначены явления, наблюдавшиеся между сроками (за 1-3 часа до срока); квадратными скобками обозначены град или гололедные отложения с указанием их диаметра в мм.
Облачность - указаны через наклонную черту общая и нижняя облачность в баллах и высота нижней границы облаков в метрах; квадратными скобками обозначены формы облаков: Ci - перистые, Cs - перисто-слоистые, Cc - перисто-кучевые, Ac - высококучевые, As - высокослоистые, Sc - слоисто-кучевые, Ns - слоисто-дождевые, Cu - кучевые, Cb - кучево-дождевые. Подробнее классификацию облаков см. в Атласе облаков (PDF).
T - Температура воздуха - температура, измеренная на высоте 2 м над землей.
Td - Температура точки росы - температура, при понижении до которой содержащийся в воздухе водяной пар достигнет насыщения.
f - Относительная влажность воздуха - влажноcть воздуха, измеренная на высоте 2 м над землей.
Te - Эффективная температура - температура, которую ощущает одетый по сезону человек в тени. Характеристика душности погоды. При расчете учитывается влияние влажности воздуха и скорости ветра на теплоощущения человека.
Tes - Эффективная температура на солнце - температура, которую ощущает человек, с поправкой на солнечный нагрев. Характеристика знойности погоды. Зависит от высоты солнца над горизонтом, облачности и скорости ветра. Ночью, в пасмурную погоду, а также при ветре 12 м/с и более поправка равна нулю.
P - Атмосферное давление - приведенное к уровню моря атмосферное давление.
Po - Атмосферное давление - измеренное на уровне метеостанции атмосферное давление.
Tmin - Минимальная температура - минимум температуры воздуха на высоте 2 м над землей.
Tmax - Максимальная температура - максимум температуры воздуха на высоте 2 м над землей.
R - Количество осадков - Количество выпавших осадков за период времени, мм. При наведении курсора мыши на число - период времени, за который выпало указанное количество осадков.
R24 - Количество осадков - Количество выпавших осадков за 24 часа, мм.
S - Снежный покров - Высота снежного покрова, см. При наведении курсора мыши на число - состояние снежного покрова и степень покрытия местности в баллах.